Location: ????????
(55.0559°N, 39.1270°E)
Time: 18:14:12
(UTC+00:00)

ADEOS Rocket - Pass Details

Date: 15 November 2025
Orbit: 859 x 1304 km, 98.7° (Epoch: 14 December)

Event Time Altitude Azimuth Distance (km) Brightness Sun altitude
Rises 01:58:50 0° 14° (NNE) 3,818 6.3 -25.0°
Reaches altitude 10° 02:01:19 10° 9° (N) 2,922 5.6 -24.6°
Maximum altitude 02:07:39 48° 298° (WNW) 1,483 3.5 -23.7°
Enters shadow 02:08:54 44° 270° (W) 1,582 3.6 -23.5°
